Location: Temagami
(47.0645°N, 79.7909°W)
Time: 06:09:50
(UTC-05:00)

ISS - Visible Passes

Search period start: 23 November 2017 00:00
Search period end: 03 December 2017 00:00
Orbit: 402 x 407 km, 51.6° (Epoch: 23 November)

Date Brightness Start Highest point End Pass type
(mag) Time Alt. Az. Time Alt. Az. Time Alt. Az.
26 Nov -1.3 18:35:09 10° S 18:35:51 13° S 18:35:51 13° S visible
27 Nov -0.9 19:17:59 10° SW 19:18:37 15° SW 19:18:37 15° SW visible
28 Nov -2.8 18:25:56 10° SSW 18:28:36 33° SSE 18:28:36 33° SSE visible
29 Nov -2.1 17:34:13 10° S 17:36:45 21° SE 17:38:30 14° E visible
29 Nov -1.5 19:09:39 10° WSW 19:11:10 25° WSW 19:11:10 25° WSW visible
30 Nov -3.9 18:17:19 10° SW 18:20:34 70° SSE 18:21:00 59° E visible
01 Dec -3.1 17:25:09 10° SW 17:28:16 41° SE 17:30:46 14° ENE visible
01 Dec -1.9 19:01:32 10° W 19:03:25 29° WNW 19:03:25 29° WNW visible
02 Dec -3.7 18:09:00 10° WSW 18:12:16 67° NNW 18:13:09 43° NE visible
